Regional Weather Roundup
Issued by NWS

Home | Current Version | Previous Version | Graphics & Text | Print | Product List | Glossary Off
Versions: 1 2 3 4 5 6 7 8 9 10 11 12 13 14 15 16 17 18 19 20 21 22 23 24 25 26 27 28 29 30 31 32 33 34 35 36 37 38 39 40 41 42 43 44 45 46 47 48 49 50

000
ASUS43 KMKX 270310
RWRWI

WISCONSIN REGIONAL WEATHER ROUNDUP
NATIONAL WEATHER SERVICE MILWAUKEE/SULLIVAN WI
1000 PM CDT THU MAR 26 2015

NOTE: "FAIR" INDICATES FEW OR NO CLOUDS BELOW 12,000 FEET WITH NO
SIGNIFICANT WEATHER AND/OR OBSTRUCTIONS TO VISIBILITY.

WIZ001-002-006>008-014>016-023>028-270400-
NORTHWEST WISCONSIN

CITY           SKY/WX    TMP DP  RH WIND       PRES   REMARKS
SUPERIOR ARPT  CLEAR     25   1  35 N12       30.23R WCI  14
ASHLAND        CLEAR     20   9  62 NW6       30.20R WCI  12
HAYWARD        CLEAR     21   6  52 NE5       30.17R WCI  15
SIREN          CLEAR     25   1  35 N6        30.19R WCI  18
CUMBERLAND     CLEAR     25   3  39 N6        30.16R WCI  18
RICE LAKE      CLEAR     25   6  46 N8        30.18R WCI  16
CHETEK         CLEAR     25   6  43 N7        30.16R WCI  18
LADYSMITH      CLEAR     23   9  55 N8        30.16R WCI  14
EAU CLAIRE     CLEAR     26   8  46 N7        30.15R WCI  18
MENOMONIE      CLEAR     26   9  48 N6        30.16R WCI  20
NEW RICHMOND   CLEAR     25   9  50 N6        30.18R WCI  18
OSCEOLA        CLEAR     27   6  41 N3        30.21R
$$

WIZ003>005-009-010-017-018-270400-
NORTH CENTRAL WISCONSIN

CITY           SKY/WX    TMP DP  RH WIND       PRES   REMARKS
MANITOWISH WTR CLOUDY    10   5  81 CALM      30.11R
ARBOR VITAE    PTCLDY    11   4  74 CALM      30.10S
WOODRUFF       PTCLDY    11   4  74 CALM      30.10S
RHINELANDER    MOCLDY    12   6  77 CALM      30.11R
EAGLE RIVER    FAIR      13   5  71 CALM      30.09S
LAND O LAKES   MOCLDY     7   4  87 CALM      30.10S
PHILLIPS       CLEAR     17   6  61 CALM      30.12S
TOMAHAWK       CLEAR     13   4  66 CALM      30.13R
MEDFORD        CLEAR     15   6  66 N5        30.12R WCI   8
MERRILL        CLEAR     16   5  61 N5        30.13R WCI   9
$$

WIZ029-030-035-036-043>047-270400-
CENTRAL WISCONSIN

CITY           SKY/WX    TMP DP  RH WIND       PRES   REMARKS
WAUSAU         CLEAR     20   5  52 N6        30.11R WCI  12
MOSINEE        CLEAR     19   9  63 N8        30.12R WCI   9
MARSHFIELD     CLEAR     22   9  57 NE7       30.11R WCI  13
STEVENS POINT  CLEAR     20   7  59 N9        30.13R WCI   9
WAUPACA        CLOUDY    28  10  46 N9        30.13R WCI  19
WAUTOMA        PTCLDY    27  11  51 N13       30.12R WCI  16
WISC RAPIDS    CLEAR     24   8  50 N12       30.14R WCI  13
CAMP DOUGLAS   PTCLDY    25  16  68 N5        30.11R WCI  19
$$

WIZ011>013-019>022-031-037>040-048>050-270400-
NORTHEAST WISCONSIN

CITY           SKY/WX    TMP DP  RH WIND       PRES   REMARKS
ANTIGO         CLOUDY    17   7  65 N15       30.11R WCI   2
SHAWANO        CLOUDY    26  13  56 N13       30.14R WCI  15
OCONTO         CLOUDY    23  11  59 N13G20    30.14R WCI  11
STURGEON BAY   CLOUDY    21  10  63 N16G24    30.13R WCI   7
GREEN BAY      CLOUDY    26  15  63 N14       30.12R WCI  14
MANITOWOC      FLURRIES  27  17  66 N15       30.09R WCI  15
APPLETON       CLOUDY    27  12  54 N15       30.10R WCI  15
CLINTONVILLE   CLOUDY    27  12  54 N9        30.12R WCI  17
OSHKOSH        CLOUDY    28  14  55 N14       30.10R WCI  17
$$

WIZ032>034-041-042-053>061-270400-
SOUTHWEST WISCONSIN

CITY           SKY/WX    TMP DP  RH WIND       PRES   REMARKS
LA CROSSE      CLOUDY    32  18  56 N6        30.13R WCI  26
SPARTA         MOCLDY    28  14  57 N3        30.14R
VIROQUA        CLOUDY    29  19  64 N3        30.10R
BOSCOBEL       CLOUDY    34  18  52 N7        30.12R WCI  28
PRAIRIE DU CHI CLOUDY    32  21  64 NW5       30.12R WCI  28
PLATTEVILLE    CLOUDY    32  23  69 NW6       30.09R WCI  26
$$

WIZ056-057-062-063-064-067-068-270400-
SOUTH CENTRAL WISCONSIN

CITY           SKY/WX    TMP DP  RH WIND       PRES   REMARKS
REEDSBURG      CLOUDY    28  15  57 N6        30.11R WCI  21
BARABOO/DELLS  MOCLDY    28  11  49 N6        30.10R WCI  21
LONE ROCK      CLOUDY    32  17  54 N12       30.12R WCI  23
MINERAL POINT  CLOUDY    32  19  59 N7        30.08R WCI  26
MADISON        CLOUDY    30  17  58 N16       30.09R WCI  19
MIDDLETON      CLOUDY    32  16  52 N14       30.10R WCI  22
WATERTOWN      CLOUDY    29  17  59 N15G22    30.08R WCI  18
MONROE         CLOUDY    32  21  64 N9        30.07R WCI  24
JANESVILLE     CLOUDY    32  18  55 NE12G17   30.08R WCI  23
$$

WIZ051-052-058>065-066-070>072-270400-
SOUTHEAST WISCONSIN

CITY           SKY/WX    TMP DP  RH WIND       PRES   REMARKS
MILWAUKEE      CLOUDY    31  14  49 N10       30.06R WCI  22
WAUKESHA       CLOUDY    28  19  69 NW10G16   30.08R WCI  19
MILWAUKEE/TIMM CLOUDY    30  16  55 N9        30.08R WCI  22
RACINE         CLOUDY    31  16  54 N10       30.07R WCI  22
BURLINGTON     CLOUDY    28  16  60 N6        30.07R WCI  22
KENOSHA        CLOUDY    31  19  61 N7        30.06R WCI  24
FOND DU LAC    CLOUDY    29  15  56 N16       30.09R WCI  17
SHEBOYGAN      FLURRIES  27  20  75 N7        30.08R WCI  19
WEST BEND      CLOUDY    30  14  51 NW12      30.07R WCI  21
JUNEAU         CLOUDY    28  18  65 NW10      30.09R WCI  19
$$

LSZ147-162-270400-
LAKE SUPERIOR

STATION/POSITION TIME  TEMP    WIND        PRES    WAVE
                       AIR SEA DIR/SP/G            HT/PER
                 (UTC) (F)     (DEG/KT/KT) (MB)    (FT/S)
DEVILS ISLAND    0300   24     360/ 21/ 24 1024.5R
PORT WING        0240   27      10/ 18/ 23 1023.4R
SAXON HARBOR     0200   27      10/ 17/ 21 1021.7R
$$

LMZ867-665-643>646-270400-
LAKE MICHIGAN

STATION/POSITION TIME  TEMP    WIND        PRES    WAVE
                       AIR SEA DIR/SP/G            HT/PER
                 (UTC) (F)     (DEG/KT/KT) (MB)    (FT/S)
NORTHPORT PIER   0201   22     340/ 23/ 25 1020.0R
SISTER BAY       0217   21     360/ 23/ 32   N/A
KEWAUNEE LAKESHO 0200   26      20/ 14/ 19 1018.0R
SHEBOYGAN LAKESH 0300   28      10/ 18/ 20 1019.6R
PORT WASHINGTON  0200   32     350/  4/ 10 1018.6R
MILWAUKEE LAKESH 0200   32     340/ 10/ 13   N/A
KENOSHA   LAKESH 0300   32     350/ 13/ 18 1018.3R
$$

TC  - TEMPERATURE IN CELSIUS
VSB - VISIBILITY IN STATUTE MILES
WCI - WIND CHILL INDEX
HX  - HEAT INDEX




USA.gov is the U.S. government's official web portal to all federal, state and local government web resources and services.